Find Starlink 5999

NORAD ID: 56909 Int'l Des: 2023-083 Owner: SPXS Country: US Constellation: starlink operational
LEOCIRCULAR

Live-Position

3D-Globus wird geladen...

Über Starlink 5999

Beschreibung wird geladen...

Nächste Überflüge

Passes for default location (London). Set your location on the main map for personalized predictions.

Höhenverlauf

Loading altitude history...

Zweizeiliger Elementsatz

1 56909U 23083AK 26104.65223983 .00000893 00000-0 42977-4 0 9999
2 56909 43.0025 227.9658 0001185 274.7888 85.2828 15.26727541157403
Epoch: 14. Apr. 2026 • Age: 15 hours

Aktueller Status

Höhe 498.1 km
Geschwindigkeit 7.62 km/s
Subsatellitenpunkt -42.95°S, 179.85°E
Startdatum 12. Juni 2023
Alter 2.8 years
Typ internet

Technische Details

Klassifizierung Payload
Masse 305.00 kg
Trockenmasse 290.00 kg
Gesamtmasse 305.00 kg
Länge 0.20 m
Durchmesser 2.80 m
Spannweite 9.00 m
Form Box + pan
Hersteller SPXS
Bus-Typ Starlink
Phasenstatus In Orbit
Besitzer/Staat SPXS/US

Most Searched